Regional Weather Roundup
Issued by NWS Grand Forks, ND

Home | Current Version | Previous Version | Graphics & Text | Print | Product List | Glossary On
Versions: 1 2 3 4 5 6 7 8 9 10 11 12 13 14 15 16 17 18 19 20 21 22 23 24 25 26 27 28 29 30 31 32 33 34 35 36 37 38 39 40 41 42 43 44 45 46 47 48 49 50
000
ASUS43 KFGF 052231
RWRFGF
PRAIRIE TO PINES  WEATHER ROUNDUP
NATIONAL WEATHER SERVICE EASTERN NORTH DAKOTA/GRAND FORKS ND
400 PM CST THU MAR 05 2015

 **SATELLITE DATA USED TO AUGMENT SKY COVER AT AUTOMATED STATIONS**
 *****  WEATHER ACROSS EASTERN NORTH DAKOTA  *****

CITY           SKY/WX    TMP DP  RH WIND       PRES   REMARKS
GRAND FORKS    SUNNY     24  12  60 S24G31    30.14F WCI   8
GRAND FRKS AFB SUNNY     27   8  45 SW17      30.12F WCI  14
GRAND FRKS NWS   N/A     25 N/A N/A S23         N/A  WCI  10
DEVILS LAKE    SUNNY     25  14  63 SW17      30.05F WCI  11
FARGO          SUNNY     25   7  46 S21G28    30.21F WCI  11
WAHPETON ARPT  CLEAR     19   7  58 S18       30.26F WCI   4
$$

 ***** WEATHER ACROSS CENTRAL AND WESTERN NORTH DAKOTA  *****

CITY           SKY/WX    TMP DP  RH WIND       PRES   REMARKS
BISMARCK       SUNNY     40  11  30 W7        30.04F
MINOT          SUNNY     28  11  48 SW14      30.00F WCI  17
JAMESTOWN      SUNNY     27  13  55 S20       30.09F WCI  13
MINOT AFB      SUNNY     28  17  65 W9        30.00F WCI  19
GARRISON         N/A     30  15  53 W8        30.02F WCI  22
WILLISTON      SUNNY     39  15  37 W14       30.02S
DICKINSON      SUNNY     42   9  25 W18G26    30.01R
HETTINGER      SUNNY     44  10  25 NW21G29   30.04R
$$

 *****  OTHER AIRPORT OBSERVATIONS IN OUR AREA  *****

CITY           SKY/WX    TMP DP  RH WIND       PRES   REMARKS
WALHALLA         N/A     25  10  54 S13G21    30.04F WCI  13
GRAFTON AIRPOR NOT AVBL
VALLEY CITY AR FLURRIES  23  12  63 S23       30.12F WCI   7
CANDO          FAIR      25  14  63 SW16      30.02F WCI  12
CAVALIER APRT  FAIR      27   9  46 SW13      30.06F WCI  16
GWINNER        CLEAR     27  12  54 S20       30.19F WCI  13
SHEYENNE NWR     N/A     25   5  41 SW16      29.95S WCI  12
ROLLA          FAIR      18   9  68 SW14      29.97F WCI   4
 ***** THE ABOVE OBSERVATIONS ARE NON NWS ARE NOT QUALITY
       CONTROLLED AND MAY MIS-REPORT RAIN FOR SNOW...
$$

  *****  WEATHER ACROSS NORTHERN MINNESOTA  *****

CITY           SKY/WX    TMP DP  RH WIND       PRES   REMARKS
FLAG ISLAND    SUNNY     14   0  52 S15       30.09F WCI  -1
WARROAD        SUNNY     16   3  57 S15       30.12F WCI   1
ROSEAU         SUNNY     18   7  62 SW22      30.11F WCI   0
HALLOCK        SUNNY     21  12  68 S24       30.10F WCI   4
THF RVR FALLS  SUNNY     18   7  62 S20       30.15F WCI   1
BAUDETTE       SUNNY     17  -2  43 S13       30.12F WCI   4
WASKISH        SUNNY     19   0  42 SW7       30.16F WCI  10
CROOKSTON      SUNNY     23  10  58 S25       30.17F WCI   7
$$
  *****  WEATHER ACROSS CENTRAL AND WEST MINNESOTA  *****

CITY           SKY/WX    TMP DP  RH WIND       PRES   REMARKS
FOSSTON        SUNNY     18   3  53 S21       30.18F WCI   1
BEMIDJI        SUNNY     17  -3  42 S16       30.19S WCI   1
PARK RAPIDS    SUNNY     15  -2  46 S14       30.23F WCI   0
ELBOW LAKE     FAIR      16   6  66 S17       30.27F WCI   0
WADENA         SUNNY     14  -2  48 S12       30.26F WCI   0
DETROIT LAKES  SUNNY     18   3  53 S13       30.22F WCI   4
MOORHEAD       SUNNY     23   7  50 S18       30.23F WCI   9
FERGUS FALLS   SUNNY     18   5  57 S17       30.30F WCI   2
MORRIS MN      SUNNY     19   7  58 S14       30.28F WCI   6
STAPLES        SUNNY     12  -4  48 S13       30.28F WCI  -3
$$
  *****  WEATHER ELSEWHERE ACROSS MINNESOTA  *****

CITY           SKY/WX    TMP DP  RH WIND       PRES   REMARKS
DULUTH         SUNNY     14  -8  37 SW14      30.25F WCI  -1
INTRNTL FALLS  SUNNY     16  -7  35 SW16      30.17F WCI   1
ELY            SUNNY     12 -11  34 W10       30.19F WCI  -1
CLOQUET        SUNNY     14  -9  34 SW12G20   30.27F WCI   0
WHEATON        SUNNY     18   7  62 S14       30.29F WCI   4
BRAINERD       SUNNY     12  -5  46 S17       30.31F WCI  -5
HIBBING        SUNNY     15  -9  33 SW9       30.23F WCI   3
ALEXANDRIA     SUNNY     14   1  56 S14       30.28F WCI  -1
SAINT CLOUD    SUNNY     13   1  59 S12       30.37F WCI  -1
MINNEAPOLIS    SUNNY     15  -1  49 S7        30.43F WCI   5
$$

  *****  WEATHER ACROSS SOUTH DAKOTA  *****

CITY           SKY/WX    TMP DP  RH WIND       PRES   REMARKS
SIOUX FALLS    MOSUNNY   29   4  34 S15G21    30.29F WCI  18
BROOKINGS      NOT AVBL
WATERTOWN      SUNNY     22   9  57 S14G23    30.22F WCI   9
HURON          SUNNY     32  10  40 S14       30.21F WCI  22
SISSETON         N/A     22  10  60 SW15      30.24F WCI   9
ABERDEEN       SUNNY     25  13  60 S14       30.20F WCI  13
MITCHELL       SUNNY     36   3  25 S13       30.24F
PIERRE         SUNNY     33  17  51 S12       30.13F WCI  24
MOBRIDGE       SUNNY     39  11  31 S15       30.06F
RAPID CITY     SUNNY     48  15  26 N22G29    30.08S
$$

  *****  SOME WEATHER IN NEARBY STATES *****

CITY           SKY/WX    TMP DP  RH WIND       PRES   REMARKS
GLASGOW MT     SUNNY     48  14  25 W12       30.03S
GREAT FALLS MT PTSUNNY   48  15  26 W28G36    30.08F
CHEYENNE WY    PTSUNNY   40  17  39 N7        30.16R
SCOTTSBLUFF NE MOSUNNY   47  14  26 W17G26    30.18S
OMAHA NE       SUNNY     30   4  33 S10       30.43F WCI  21
DES MOINES IA  SUNNY     20  -1  40 CALM      30.49F
DAVENPORT IA   SUNNY     10  -3  55 NW9       30.54R WCI  -3
CHICAGO IL     SUNNY     15  -2  46 W6        30.48R WCI   6
EAU CLAIRE WI  SUNNY     10  -8  44 W9        30.43F WCI  -3
LA CROSSE WI   SUNNY     15  -3  44 NW12      30.48S WCI   2
$$

  *****  SOME NATIONAL WEATHER *****

CITY           SKY/WX    TMP DP  RH WIND       PRES   REMARKS
LA GUARDIA NY  SNOW      22  18  85 NW14      30.20R VSB 1/2 WCI   9
RALEIGH NC     LGT RAIN  37  33  85 NE9G22    30.08R FOG
ATLANTA GA     CLOUDY    40  34  79 NW20G35   30.15R
NEW ORLEANS LA CLOUDY    38  31  76 N24G35    30.30R
OKLAHOMA CITY  SUNNY     42  15  33 SW8       30.50S
ALBUQUERQUE NM SUNNY     49  12  22 S8        30.32F
SALT LAKE CITY MOSUNNY   48  19  31 NW7       30.41S
LOS ANGELES CA MOSUNNY   72  21  14 SW8       30.20F
BOISE ID       SUNNY     54  17  23 NE3       30.35F
SEATTLE WA     PTSUNNY   56  25  30 CALM      30.36F
$$

*** WEATHER ACROSS MANITOBA...SASKATCHEWAN AND ONTARIO ***
                ***ONTARIO***

CITY           SKY/WX    TMP DP  RH WIND       PRES   REMARKS
GERALDTON      SUNNY      9 -11  40 W14G24    30.11F WCI  -8
THUNDER BAY    SUNNY     16  -9  32 W12G20    30.23F WCI   3
SIOUX LOOKOUT  PTSUNNY   10  -9  40 SW13G21   30.07F WCI  -5
TORONTO        MOSUNNY   14  -4  44 NW12      30.35R WCI   0
BIG TROUT LK   CLOUDY     7  -6  56 SW9       29.85F WCI  -7
PICKLE LAKE    PTSUNNY    9 -11  40 S12G20    29.95F WCI  -6
DRYDEN         MOSUNNY   12  -8  40 SW15G24   30.07F WCI  -4
KENORA         PTSUNNY   10  -6  48 S20G26    30.06F WCI  -8
$$
                *** MANITOBA***

CITY           SKY/WX    TMP DP  RH WIND       PRES   REMARKS
BRANDON        PTSUNNY   14   5  67 SW16      29.95F WCI  -2
DAUPHIN        MOSUNNY   27   7  43 SW18G30   29.82F WCI  13
ISLAND LAKE    CLOUDY    12  -8  40 SW9G18    29.79F WCI   0
PILOT MOUND      N/A     18  10  73 S14         N/A  WCI   4
THE PAS        CLOUDY    16   1  53 W16       29.76R WCI   0
THOMPSON       PTSUNNY   12  -2  52 SW12      29.65F WCI  -2
WINNIPEG       PTSUNNY   16   7  67 S21G29    30.05F WCI  -2
LYNN LAKE      SUNNY     16   3  57 W14G21    29.62R WCI   1
CHURCHILL      LGT SNOW   1  -8  66 S10       29.60F WCI -14
GILLAM         PTSUNNY   10  -8  44 SW14      29.66F WCI  -5
$$
                ***SASKATCHEWAN***

CITY           SKY/WX    TMP DP  RH WIND       PRES   REMARKS
ESTEVAN        MOSUNNY   28  16  59 SW14      29.98S WCI  17
KINDERSLEY     PTSUNNY   34  25  69 W12       29.98R
LLOYDMINSTER   PTSUNNY   32  19  59 W12       29.93S WCI  23
PRINCE ALBERT  MOSUNNY   30  10  43 NW17G26   29.86  WCI  18
REGINA         PTSUNNY   28  19  69 W17G24    29.93F WCI  16
YORKTON        SUNNY     23  12  63 W14       29.84S WCI  11
N. BATTLEFORD  SUNNY     32  18  55 NW10      29.96R WCI  24
LA RONGE       MOSUNNY   27  14  59 W14G25    29.80S WCI  15
SASKATOON      PTSUNNY   28  16  59 NW16      29.94S WCI  17
SWIFT CURRENT  SUNNY     37  23  56 W18G28    29.94S
$$
NOTE: THESE ARE AUTOMATED STATIONS WITH LIMITED QUALITY CONTROL
      "FAIR" INDICATES FEW OR NO CLOUDS BELOW 12,000 FEET WITH NO
      SIGNIFICANT WEATHER AND/OR OBSTRUCTIONS TO VISIBILITY.
      SKY/WX - SKY CONDITION AND SIGNIFICANT WEATHER.
      TMP - AIR TEMPERATURE.    DP   - DEWPOINT TEMPERATURE.
      RH  - RELATIVE HUMIDITY.  PRES - PRESSURE.
      HX  - HEAT INDEX.         WCI  - WIND CHILL INDEX.
$



USA.gov is the U.S. government's official web portal to all federal, state and local government web resources and services.